Wind_Speed
29 29 29 28 28 28 28 29 29 29 30 29 29 29 29 29 29 28 26 25 24 23 21 19 18 18 19 20 21 21 21 22 23 23 24 25 25 26 26 27 27 28 28 29 30 30 31 31 32 33 33 34 35 35 35 35 35 35 35 35 36 36 36 36 37 37 37 37 37 38 38 38 39 39 40 40 41 41 41 42 42 43 43 43 44 44
28 29 29 29 29 29 29 29 29 29 28 28 28 28 28 28 28 27 26 25 24 22 21 19 18 18 19 20 21 21 22 22 23 23 24 24 25 25 26 26 27 27 28 29 29 30 31 32 32 33 33 34 34 34 35 35 35 35 35 35 36 36 36 36 37 37 37 38 38 39 39 40 40 41 41 41 42 42 43 43 43 44 44 44 44 44
29 29 29 30 30 29 29 28 28 28 27 26 26 26 26 26 26 26 25 24 23 21 20 18 18 18 18 19 20 21 21 22 22 23 23 24 24 25 26 26 27 27 28 29 30 30 31 32 32 33 33 34 34 34 34 34 35 35 35 35 35 36 36 36 37 38 38 39 39 40 40 41 41 42 42 42 43 43 43 44 44 44 44 43 43 43
30 29 30 29 29 29 28 27 27 26 26 25 24 24 24 24 24 24 23 23 22 21 20 19 19 19 19 20 20 21 22 22 23 24 24 25 25 26 27 27 28 28 29 29 30 31 32 32 33 33 33 33 34 34 34 34 34 34 35 35 35 36 36 37 38 39 39 40 40 41 41 41 42 42 42 42 42 42 42 42 42 41 41 40 40 39
30 29 29 28 28 27 27 26 26 25 24 23 22 22 22 22 22 22 22 22 21 21 21 21 21 21 21 22 22 22 23 24 24 25 26 27 27 27 28 28 28 29 29 30 31 31 32 32 33 33 33 33 33 33 34 34 34 35 35 36 36 37 38 38 39 40 40 40 41 41 41 41 41 41 40 40 40 39 39 38 37 37 36 35 35 34
28 27 27 26 26 25 25 25 24 23 22 21 21 21 21 21 21 21 21 21 21 21 21 22 22 22 22 23 23 24 24 25 26 26 27 27 28 28 28 29 29 29 30 30 31 32 32 33 33 33 33 33 33 33 34 34 35 36 36 37 37 38 39 39 40 40 40 40 39 39 39 38 38 37 37 36 35 34 33 33 32 31 30 30 29 29
25 25 24 24 23 23 23 22 22 21 21 20 20 20 20 20 20 20 20 20 20 21 21 21 22 22 22 23 23 24 24 25 26 26 27 27 28 28 29 29 29 30 30 31 32 32 32 33 33 33 33 33 34 34 35 36 36 37 38 38 39 39 39 39 39 38 38 37 36 36 35 34 33 32 31 30 29 29 28 27 27 26 26 25 25 25
21 21 21 20 21 21 21 21 20 20 20 19 19 19 19 19 19 20 20 20 20 21 21 21 22 22 22 23 23 24 24 25 26 27 27 28 28 29 29 29 30 30 31 31 32 32 33 33 33 33 34 34 35 36 36 37 38 38 39 39 39 39 38 38 37 35 34 33 32 31 30 29 28 27 26 25 25 24 24 23 23 23 23 23 23 23
18 18 18 18 18 18 19 19 19 19 19 19 19 19 19 19 19 20 20 21 21 21 21 22 22 22 23 23 24 24 25 26 27 27 28 28 29 29 30 30 30 31 31 32 33 33 34 34 34 35 35 36 37 37 38 38 39 39 39 39 38 37 36 34 33 31 30 28 27 26 25 24 23 23 22 22 21 21 21 21 21 21 21 22 22 22
17 16 16 16 16 17 17 18 18 18 18 18 18 18 19 19 19 20 20 21 21 22 22 23 23 24 24 24 25 26 26 27 28 28 29 29 30 30 31 31 31 32 33 33 34 34 35 36 36 37 37 37 38 38 39 39 39 38 37 36 35 33 31 30 28 27 25 24 23 22 21 20 20 20 19 19 20 20 20 20 20 21 21 22 22 23
18 17 16 16 16 16 17 17 18 18 18 19 19 19 19 19 20 20 21 22 23 23 23 24 24 25 26 26 27 27 28 29 29 30 31 31 32 32 32 33 33 34 34 35 36 36 37 38 38 38 38 38 38 38 38 38 37 36 34 33 31 29 27 25 24 22 21 20 19 19 18 18 18 18 18 19 19 19 20 20 21 21 22 22 23 23
20 19 18 18 17 17 17 18 18 19 19 20 21 21 21 22 22 22 23 24 25 25 25 25 26 27 27 28 29 29 30 31 31 32 33 33 34 34 35 35 35 36 36 37 37 38 39 39 39 39 38 38 37 37 36 35 34 32 30 28 26 24 23 21 20 19 18 18 18 17 17 18 18 18 19 19 19 20 20 21 21 22 22 23 23 24
22 22 21 21 20 19 19 19 20 20 21 22 22 23 24 24 25 25 26 26 27 27 27 28 28 29 29 30 31 31 32 33 33 34 35 35 36 37 37 37 37 37 37 38 38 39 39 39 38 37 37 36 35 34 33 31 30 28 26 24 22 21 20 19 18 18 17 17 17 17 18 18 18 19 19 20 20 21 21 22 22 22 23 23 24 24
24 24 24 23 23 23 22 22 22 23 23 23 24 25 25 26 27 27 28 28 29 29 30 30 30 31 32 32 33 33 34 34 35 35 36 37 37 38 38 38 38 38 38 38 38 38 38 37 36 35 34 33 32 30 29 27 25 24 22 20 19 18 18 17 17 17 17 17 18 18 18 19 19 20 20 21 21 22 22 22 22 23 23 24 24 24
26 26 26 26 26 26 25 25 25 25 26 26 26 26 27 27 28 29 29 30 30 31 31 32 32 32 33 34 34 34 35 35 35 36 36 37 37 38 38 38 38 37 37 37 36 36 36 34 33 32 30 29 28 27 25 24 22 21 19 18 18 17 17 17 17 17 18 18 19 19 20 20 20 21 21 22 22 22 22 23 23 23 23 24 24 24
27 28 28 28 28 28 28 28 28 28 28 28 28 28 28 29 29 30 30 30 31 31 32 32 32 33 33 34 35 35 35 35 35 35 35 36 36 37 37 37 36 35 35 35 34 34 33 31 30 28 27 26 25 24 22 21 20 19 18 18 17 17 18 18 18 18 19 19 20 20 21 21 21 22 22 22 22 22 22 23 23 23 23 23 24 24
27 28 28 29 29 29 29 30 30 30 30 29 29 29 29 30 30 30 30 31 31 31 31 32 32 32 33 33 34 34 34 34 34 34 34 34 34 35 36 35 34 33 33 32 32 31 30 28 27 25 24 23 22 21 20 19 19 18 18 18 18 18 18 19 19 20 20 20 21 21 21 22 22 22 22 22 22 22 22 22 22 22 23 23 23 24
26 27 27 28 28 29 29 29 30 30 30 30 30 30 30 30 30 30 30 30 30 31 31 31 31 31 32 32 33 34 34 34 33 33 32 32 32 33 34 33 32 31 30 30 30 29 27 25 24 23 22 21 21 20 19 19 18 18 18 18 19 19 20 20 20 20 21 21 21 21 21 22 22 22 21 21 21 21 21 21 22 22 22 23 23 23
25 25 26 26 27 27 27 28 28 28 28 29 29 29 29 29 29 30 30 30 30 30 30 30 30 31 31 31 32 33 33 33 33 32 31 30 30 31 33 32 30 29 28 28 27 26 25 23 21 21 20 20 20 19 19 19 19 19 19 19 20 20 20 21 21 21 21 21 21 21 21 21 21 21 21 21 21 21 21 21 21 22 22 22 22 23
24 24 24 24 25 25 25 25 26 26 26 26 27 27 27 28 28 28 28 29 29 29 29 29 30 30 30 30 31 32 33 33 32 31 30 28 29 30 32 31 29 27 26 26 25 24 22 21 20 20 20 20 20 20 19 19 19 20 20 20 21 21 21 21 21 21 21 21 21 21 21 21 21 21 20 20 20 21 21 21 21 22 22 22 22 22
23 23 23 23 23 23 23 23 24 24 25 25 25 26 26 26 26 27 27 27 27 27 28 28 29 29 29 29 30 31 32 32 31 30 28 27 28 29 31 29 27 25 24 24 24 22 21 19 19 19 20 20 20 20 20 20 20 20 21 21 21 21 21 21 21 21 21 21 21 21 20 20 20 20 20 20 21 21 21 21 22 22 22 22 22 22
22 22 22 23 23 23 23 23 23 24 24 24 25 25 25 25 25 26 26 26 26 27 27 28 28 29 29 29 30 31 31 31 30 29 27 26 26 28 30 28 26 23 22 22 22 21 20 19 19 20 20 20 20 20 20 20 20 21 21 21 21 22 21 21 21 21 21 20 20 20 20 20 20 20 20 21 21 21 22 22 22 23 23 23 23 23
22 22 23 23 23 23 23 24 24 24 25 25 25 25 25 25 25 25 25 26 26 27 27 28 28 29 29 30 30 31 31 31 30 28 26 24 25 27 28 27 24 22 21 21 21 20 19 19 20 20 21 21 21 20 20 21 21 21 21 21 22 22 21 21 21 21 20 20 20 20 20 20 20 21 21 21 22 22 22 23 23 23 24 24 24 24
23 23 23 24 24 24 24 24 25 25 25 26 26 26 26 26 26 26 26 27 27 28 28 29 29 29 30 30 31 31 32 31 30 28 25 24 24 25 27 26 24 21 20 21 21 20 20 20 20 21 21 21 21 20 20 21 21 21 21 22 22 22 21 21 21 21 20 20 20 20 21 21 21 22 22 22 23 23 23 24 24 24 25 25 25 25
24 24 24 24 24 24 25 25 25 26 26 26 26 27 27 27 27 27 28 28 28 29 29 29 28 28 29 30 31 31 32 32 30 27 25 23 23 24 25 25 23 21 20 20 20 20 20 20 21 21 21 21 21 20 20 21 21 21 21 21 21 21 21 21 21 21 21 20 21 21 21 22 22 23 23 23 24 24 24 25 25 25 26 26 26 26
24 24 25 25 25 25 25 25 26 26 27 27 27 27 27 27 27 28 28 28 29 29 29 29 29 29 29 30 30 31 32 32 30 27 24 22 21 22 24 24 22 20 20 20 20 20 20 21 21 21 21 21 20 20 20 21 21 21 21 21 21 21 21 21 21 21 21 21 21 22 22 23 23 24 24 24 25 25 25 26 26 26 27 27 27 27
24 25 25 25 25 25 26 26 26 27 27 28 28 28 28 27 27 27 27 28 29 29 29 29 29 29 29 29 30 30 31 31 29 27 24 21 20 21 23 23 22 21 20 20 20 20 20 21 21 21 21 21 20 20 20 21 21 21 21 21 21 21 21 22 22 22 22 22 23 23 23 24 24 25 25 25 26 26 26 27 27 27 28 28 28 28
25 25 25 26 26 26 26 26 27 27 28 28 29 29 29 28 28 27 27 28 29 30 29 29 29 29 29 28 29 29 30 30 29 27 24 21 20 20 22 22 22 21 20 20 20 20 20 21 21 21 21 21 20 20 21 21 21 21 21 21 22 22 22 22 23 23 23 23 24 24 25 25 26 26 26 27 27 27 28 28 28 28 29 29 29 29
25 26 26 26 26 26 27 27 27 28 28 29 29 29 30 29 28 28 28 29 29 29 29 29 29 29 28 28 28 28 29 29 29 27 24 21 20 20 21 21 21 21 20 20 20 20 20 21 21 21 21 21 20 21 21 21 21 21 22 22 22 22 23 23 24 24 24 25 25 26 26 27 27 28 28 29 29 29 29 30 30 30 30 30 30 30
26 26 26 27 27 27 27 27 28 28 29 29 29 30 30 30 30 29 29 29 29 29 28 29 29 28 28 27 26 27 28 29 29 27 24 21 20 20 20 21 21 21 21 20 20 20 20 21 21 21 21 21 21 21 21 22 22 22 22 22 23 23 24 24 24 25 25 26 26 27 28 28 29 30 30 31 31 31 31 31 32 32 31 31 31 31
26 26 26 27 27 27 28 28 28 28 29 29 30 30 30 31 30 30 30 29 29 28 28 28 28 28 27 26 25 25 26 28 29 27 25 22 20 20 20 20 21 21 21 21 20 20 20 21 21 21 21 21 21 21 22 22 22 23 23 23 23 24 24 25 25 26 26 27 28 29 29 30 31 31 32 32 33 33 33 33 33 33 33 33 33 32
26 27 27 27 27 28 28 28 28 29 29 29 30 30 31 31 30 30 30 29 29 28 28 27 27 27 26 25 24 24 24 26 28 27 25 22 21 20 20 20 21 21 21 21 21 20 20 20 21 21 21 22 22 22 22 23 23 23 23 23 24 24 25 25 26 27 27 28 29 30 31 32 32 33 34 34 34 35 35 35 35 35 35 34 34 33
27 27 27 27 28 28 28 28 29 29 29 30 30 30 31 31 30 30 30 29 29 28 27 27 26 26 25 24 23 23 24 25 26 27 25 23 22 21 21 21 21 21 21 21 21 21 20 20 20 21 21 22 22 22 22 23 23 23 23 24 24 25 26 26 27 28 29 29 30 31 32 33 33 34 35 35 35 36 36 36 36 36 36 36 35 34
27 27 28 28 28 28 28 28 29 29 29 30 30 30 30 30 30 30 30 29 28 28 27 26 25 25 24 24 23 23 23 25 26 26 25 23 22 22 21 21 21 22 22 22 22 21 21 21 21 21 21 21 22 22 23 23 23 24 24 24 25 26 27 28 28 29 30 31 31 32 33 34 34 35 36 36 36 36 37 37 37 37 36 36 36 35
27 28 28 28 28 28 28 29 29 29 29 30 30 30 30 30 30 30 29 29 28 27 27 26 25 24 23 23 22 22 23 24 25 25 25 24 23 22 22 22 22 22 23 22 22 22 22 22 22 21 21 21 21 22 22 23 24 24 25 25 26 27 28 29 30 30 31 32 32 33 34 35 35 36 36 37 37 37 37 37 37 37 37 36 36 35
27 27 28 28 28 28 28 28 29 29 29 29 30 30 30 30 30 29 29 28 28 27 26 25 24 24 23 22 22 22 23 24 25 25 25 24 24 23 23 23 23 23 23 23 23 23 23 23 23 22 22 21 21 22 23 24 24 25 25 26 27 28 29 30 31 31 32 32 33 33 34 35 35 36 37 37 38 38 38 37 37 37 36 36 36 35
27 27 28 28 28 28 28 28 29 29 29 29 29 30 30 30 29 29 29 28 27 26 26 25 24 23 23 22 22 22 23 24 25 25 25 25 25 24 23 23 24 24 24 24 24 24 24 23 23 23 22 22 22 22 23 24 24 25 26 26 27 28 29 30 31 32 32 32 33 33 34 35 35 36 37 37 38 38 38 37 37 36 36 36 35 34
27 27 28 28 28 28 28 28 28 29 29 29 29 29 29 29 29 29 28 28 27 26 25 24 24 23 23 22 22 23 23 24 24 25 25 25 25 25 24 24 25 25 25 25 25 24 24 24 23 23 23 23 23 23 23 24 24 25 26 27 27 28 29 30 31 31 32 32 33 33 34 35 35 36 37 37 37 37 37 37 36 36 35 35 34 34
28 28 28 28 28 28 28 28 28 28 28 28 28 28 28 28 28 28 28 27 27 26 25 24 24 23 23 23 23 23 23 24 24 25 25 25 25 25 25 25 25 25 25 26 25 25 25 24 24 24 24 24 24 24 24 25 25 25 26 26 27 27 28 29 30 30 31 32 32 33 33 34 35 36 36 37 37 36 36 35 35 35 34 34 34 33
28 28 28 28 28 28 28 28 28 28 28 28 28 28 28 28 27 27 27 27 26 26 25 24 24 23 23 23 23 24 24 24 25 25 25 26 26 26 26 25 25 25 26 26 26 26 26 25 25 25 25 25 25 25 25 26 26 26 27 26 26 26 27 28 29 29 30 31 32 32 33 34 35 35 36 36 36 35 35 34 34 34 34 33 33 33
27 27 28 28 28 28 28 27 27 27 27 27 27 27 27 27 27 27 26 26 26 26 25 24 24 23 23 23 23 24 24 25 25 25 26 26 26 26 26 26 26 26 26 26 26 26 26 26 27 27 27 27 27 27 27 27 27 27 27 27 26 26 26 27 27 28 29 30 31 32 33 33 34 34 34 34 34 34 33 33 33 32 32 33 32 32
27 27 27 27 28 28 27 27 27 27 27 26 26 26 27 26 26 26 26 26 26 25 25 25 24 23 23 23 24 24 25 25 25 26 26 26 26 26 26 26 26 26 26 26 26 27 27 27 27 28 28 29 29 29 28 28 28 27 28 27 27 27 27 27 27 28 29 30 30 31 32 33 33 33 33 33 33 32 32 32 32 32 32 32 32 32
27 27 27 27 27 27 27 27 27 27 26 26 26 26 26 26 26 26 25 25 25 25 25 25 24 23 23 23 24 24 25 25 26 26 26 26 26 26 26 26 26 26 26 27 27 27 27 28 28 28 29 30 30 30 29 29 28 28 28 29 29 29 28 27 28 28 29 29 30 31 31 32 32 32 32 32 31 31 31 31 31 31 31 31 31 31
27 27 27 27 27 27 27 27 27 26 26 26 26 26 26 26 26 25 25 25 25 25 25 24 24 24 23 23 23 24 25 26 26 27 27 26 26 26 26 26 26 27 27 27 27 27 28 28 28 29 30 30 31 30 30 30 30 29 29 30 30 30 29 29 29 29 29 29 30 30 31 31 31 31 31 31 30 30 30 30 30 31 31 31 31 31
27 27 27 27 27 27 27 27 27 26 26 26 26 26 26 26 26 25 25 25 25 25 24 24 24 24 23 23 23 24 25 26 26 27 27 27 27 27 27 27 27 27 27 28 28 28 28 29 29 30 30 31 31 31 31 31 31 31 30 31 31 31 31 31 30 30 30 30 30 30 31 31 31 31 31 30 30 30 30 30 30 30 30 31 31 31
27 27 27 27 27 27 26 26 26 26 26 26 26 26 26 26 26 26 25 25 25 25 24 24 24 24 23 23 23 24 24 25 26 27 27 28 27 27 27 27 27 28 28 28 28 29 29 29 30 30 31 31 31 31 31 32 32 32 31 32 32 32 32 31 31 31 31 31 30 30 31 31 31 31 31 30 30 30 30 30 30 30 30 30 30 31
26 26 26 27 26 26 26 26 26 26 26 26 26 26 26 26 26 26 26 25 25 25 24 24 24 23 23 23 23 24 24 25 26 27 27 28 28 28 28 28 28 28 29 29 29 29 30 30 30 31 31 32 32 32 32 32 32 32 32 33 32 32 32 32 32 32 32 31 31 31 31 31 31 31 31 31 31 30 30 30 30 30 30 30 30 30
26 26 26 26 26 26 26 26 26 26 26 26 26 26 27 26 26 26 26 26 25 25 25 24 24 23 23 23 23 24 24 24 25 26 27 28 28 29 29 29 29 29 29 30 30 30 30 31 31 32 32 32 32 32 32 32 33 33 33 33 33 33 33 32 32 32 32 31 31 31 31 31 31 31 32 31 31 31 30 30 30 30 30 30 30 30
26 26 26 26 26 26 26 26 26 26 26 26 26 26 27 27 27 26 26 26 26 25 25 24 24 24 23 23 23 23 24 24 25 26 27 27 28 29 29 30 30 30 30 30 31 31 31 31 32 32 32 33 33 33 33 33 33 33 33 33 33 33 33 32 32 32 31 31 31 31 31 32 32 32 32 32 32 31 31 30 30 29 29 30 30 30
27 26 26 26 26 26 26 26 26 26 26 26 26 26 27 27 27 27 27 26 26 25 25 24 24 24 24 23 23 23 24 24 25 26 26 27 28 28 29 30 30 30 31 31 31 32 32 32 32 32 32 33 33 33 33 33 33 33 33 33 33 33 32 32 31 31 31 31 31 31 31 31 32 32 33 33 33 32 31 30 30 29 29 29 29 30
27 27 27 27 27 27 27 27 26 26 26 26 26 26 26 27 27 27 27 27 26 26 25 25 24 24 24 24 23 24 24 24 25 26 26 27 28 28 29 29 30 30 31 31 32 32 32 32 32 32 32 32 33 34 33 33 33 33 33 33 33 32 32 31 31 31 31 31 31 31 31 31 32 32 33 33 33 33 32 31 30 29 29 29 29 30
Wind_Direction
307 307 307 306 305 303 302 301 300 300 301 300 299 298 296 296 295 295 295 294 292 290 288 285 283 281 279 278 276 274 272 269 267 265 263 261 260 259 258 258 258 258 258 259 260 261 261 262 262 262 263 263 264 264 265 265 266 267 267 268 269 269 269 270 270 270 270 270 270 270 270 270 270 270 270 271 271 271 271 271 272 272 272 272 272 272
304 304 304 304 303 302 301 300 300 300 300 300 299 298 297 296 295 294 293 292 290 289 288 287 285 282 279 276 274 272 269 267 265 263 261 259 259 258 258 258 258 259 259 260 260 260 260 260 261 261 262 263 264 265 267 268 269 269 270 270 271 271 271 271 271 271 271 271 270 270 270 270 271 271 271 271 272 272 272 272 272 273 273 273 273 273
302 302 302 302 302 302 302 301 301 300 300 300 299 298 297 297 296 294 293 292 291 291 291 289 287 284 281 277 274 271 269 266 264 262 261 260 259 259 259 259 260 260 260 260 261 261 261 261 262 263 264 265 267 268 269 270 271 272 273 273 273 273 273 273 272 272 272 271 271 271 271 271 272 272 272 273 273 273 273 273 273 273 273 273 273 273
301 301 301 301 301 302 303 303 302 302 301 301 300 300 299 297 296 295 294 293 293 294 293 292 290 287 283 279 276 272 270 267 265 264 263 262 262 262 262 262 262 262 262 263 263 263 264 264 265 266 267 268 269 271 272 273 274 274 274 274 274 274 273 272 272 271 271 271 271 272 272 273 273 273 273 273 273 273 273 273 273 273 273 273 273 273
300 300 300 301 302 303 304 304 304 304 304 303 303 302 300 298 296 294 294 294 294 294 294 292 290 287 284 281 278 274 272 269 267 266 266 265 265 265 265 265 265 265 265 265 266 266 266 267 268 269 270 271 272 273 274 275 275 275 275 274 274 273 272 272 272 272 272 272 273 273 273 274 274 274 274 273 273 273 273 273 273 273 273 273 273 274
301 301 301 302 304 306 307 307 307 307 306 306 304 303 300 297 295 294 293 293 293 293 292 290 288 286 284 281 278 275 273 271 269 268 268 268 268 267 267 267 267 267 267 268 268 268 269 269 270 271 273 273 274 275 275 275 275 275 275 274 274 274 273 273 273 274 274 274 274 274 274 274 274 273 273 273 273 273 273 273 274 274 275 275 276 276
304 304 305 307 309 310 311 311 311 310 308 305 303 300 298 296 294 293 292 292 291 290 289 287 285 283 280 278 276 274 272 271 270 269 269 269 269 269 269 269 269 270 270 270 270 271 271 272 273 274 275 276 276 276 276 276 276 276 276 276 275 275 275 275 275 275 275 275 274 274 273 273 273 273 273 273 273 274 274 275 276 277 278 279 280 281
310 311 313 314 315 315 315 315 314 311 308 304 300 297 295 294 293 292 292 291 289 287 285 283 281 278 275 274 272 271 270 270 270 270 270 270 270 271 271 271 272 272 272 273 273 274 275 275 276 277 277 277 277 277 277 277 277 277 277 277 277 277 277 276 276 275 274 274 273 273 272 272 272 272 273 274 275 275 277 278 279 280 282 283 283 284
320 320 321 321 320 318 317 314 312 309 305 301 297 294 292 291 291 290 289 287 286 284 282 280 278 276 274 273 272 271 271 271 271 271 272 272 273 273 274 274 274 275 275 276 276 277 277 278 278 278 278 278 278 278 278 278 278 278 278 278 277 277 276 276 275 274 273 272 271 271 271 271 272 273 274 275 276 278 279 280 282 283 284 285 285 286
325 325 323 321 318 315 312 309 306 304 301 297 294 292 290 289 287 286 285 284 283 282 280 279 278 278 277 277 276 275 275 275 275 276 276 276 276 277 277 277 277 278 278 279 279 279 279 279 279 279 279 279 279 279 279 279 279 278 278 277 277 276 275 273 272 271 270 270 270 270 270 271 272 273 275 276 278 279 280 282 283 284 285 285 286 286
323 321 318 315 312 310 307 303 300 298 296 294 292 291 289 288 286 285 284 282 282 281 281 280 280 281 281 281 281 280 280 280 280 280 280 280 280 280 280 280 280 280 280 281 281 281 280 280 280 280 280 280 280 280 279 279 278 277 277 276 275 273 272 270 269 268 268 268 268 269 270 271 272 273 275 276 278 279 280 281 282 283 284 284 285 285
316 314 312 309 306 304 301 299 297 295 293 292 291 290 289 288 287 286 285 284 284 283 283 283 283 283 283 283 283 283 283 283 283 283 283 283 282 282 282 281 281 281 281 281 281 281 281 280 280 281 280 280 280 279 278 277 276 275 274 273 271 269 267 266 265 265 265 266 267 268 269 270 271 273 274 275 277 278 279 280 281 281 282 282 283 283
311 309 307 305 303 300 298 295 293 292 291 290 289 289 288 288 288 287 286 286 286 286 286 286 285 285 285 284 284 284 283 283 284 283 283 283 283 282 282 282 281 281 281 281 280 280 280 280 280 280 280 279 278 277 276 275 273 272 270 268 266 264 263 262 262 262 263 264 266 267 268 269 271 272 273 274 276 276 277 278 278 279 279 280 280 280
307 306 304 302 300 298 296 293 291 289 288 288 287 287 287 287 287 287 286 286 287 287 287 286 286 285 285 284 284 283 283 283 283 283 282 282 282 282 282 281 281 281 281 281 281 280 280 280 280 280 279 277 276 274 273 271 269 267 265 263 261 260 259 259 260 261 262 264 265 267 268 269 270 271 272 273 274 275 275 276 276 277 277 277 278 278
306 304 303 301 299 298 296 294 292 291 289 288 287 287 287 287 286 286 286 286 286 286 286 285 285 285 285 284 284 283 282 282 282 282 282 282 282 282 282 282 282 282 282 282 281 281 281 280 280 278 277 275 273 270 268 266 264 261 259 257 257 256 257 258 259 261 262 263 265 266 268 269 270 270 271 272 272 273 274 275 275 276 276 276 277 277
306 304 303 302 301 300 298 296 295 294 293 292 290 289 288 287 287 286 286 286 286 286 285 285 285 285 285 285 284 283 282 282 281 281 281 282 283 283 283 283 283 283 283 283 282 281 280 280 278 276 274 271 268 266 263 261 259 256 255 254 255 255 257 258 259 261 262 264 265 266 267 268 269 269 270 271 272 273 274 275 276 276 277 277 277 278
306 305 304 303 302 302 301 300 299 297 297 296 294 293 291 290 290 289 288 287 287 287 286 286 285 285 285 286 286 285 284 283 283 283 283 283 284 284 284 284 284 284 283 282 281 280 279 278 276 273 270 267 264 261 259 257 255 254 254 254 255 256 257 258 260 261 262 264 265 266 267 268 269 270 271 272 273 274 275 276 277 278 279 279 279 279
306 305 304 303 303 303 303 302 301 301 300 299 298 297 296 295 294 293 292 291 291 290 290 290 290 289 288 287 287 288 287 286 286 286 287 287 286 286 285 284 284 284 283 281 280 278 277 275 272 268 265 262 259 257 255 254 253 253 254 255 256 257 258 259 260 262 263 264 265 266 267 268 269 271 272 274 275 277 278 279 280 280 281 281 281 281
306 306 305 304 304 304 304 304 303 303 302 301 300 299 299 298 298 297 296 296 296 295 295 294 294 293 292 290 290 290 290 289 290 290 290 290 288 287 285 284 284 283 282 279 277 275 273 270 267 263 260 257 255 254 254 254 254 254 255 256 257 258 259 261 262 263 264 265 266 268 269 270 271 273 275 277 278 279 280 281 282 282 282 282 282 282
308 307 306 306 306 306 305 305 305 304 303 302 301 301 300 300 300 299 299 299 299 298 298 297 296 295 294 293 292 292 291 291 292 292 292 291 289 286 284 284 283 282 280 277 274 272 269 265 261 258 256 254 254 253 254 254 255 256 257 258 259 260 261 262 264 265 266 267 268 270 271 273 275 276 278 280 281 282 283 283 284 284 284 284 284 284
310 310 309 309 308 308 308 307 306 306 305 304 303 303 303 303 303 302 302 302 301 300 299 298 297 296 295 294 293 293 292 292 292 293 292 291 287 285 283 282 281 279 276 273 270 267 264 260 257 255 253 253 254 254 255 256 257 258 259 260 261 262 264 265 266 267 268 269 271 272 274 276 278 280 281 283 284 284 285 285 286 286 286 287 287 286
313 313 313 312 312 311 311 310 310 309 309 308 306 306 306 306 306 306 306 305 304 303 301 300 299 299 298 297 296 295 294 293 293 292 292 289 285 282 282 281 279 276 271 268 265 263 259 256 254 254 253 254 255 256 257 259 260 261 262 263 264 265 266 267 268 269 271 272 274 276 278 280 281 283 284 285 286 287 287 288 288 289 289 289 289 289
316 316 316 315 315 314 314 313 313 313 312 311 310 310 310 310 309 309 309 308 306 305 303 302 302 302 301 300 298 297 296 295 294 293 291 287 282 279 279 278 276 271 266 264 261 259 256 255 254 254 255 256 257 258 259 261 262 263 264 264 266 267 268 269 270 271 273 275 277 279 281 283 284 285 286 287 288 289 289 290 290 291 291 291 291 291
317 317 317 316 316 316 315 315 314 314 314 313 313 313 313 313 312 312 311 309 308 306 305 305 305 304 302 300 299 297 297 296 295 293 290 285 279 275 275 274 271 267 262 260 258 257 256 255 255 256 257 258 259 260 261 262 263 264 265 266 267 268 269 271 272 274 276 278 280 282 283 285 286 287 288 289 290 290 291 291 292 292 293 293 293 294
317 317 316 316 316 316 316 315 315 314 314 314 314 314 314 314 313 313 312 310 308 307 306 305 305 303 301 299 298 297 296 296 295 292 288 283 277 272 271 270 267 263 259 258 257 256 256 256 257 257 258 259 260 262 263 263 264 265 266 267 269 270 272 274 275 277 279 281 282 283 285 286 287 288 289 290 291 291 292 293 293 294 294 295 295 295
316 316 316 316 316 316 316 315 315 314 314 314 313 313 313 313 313 312 311 309 307 306 306 305 304 302 301 299 298 296 295 295 294 291 286 280 273 268 268 267 265 261 258 257 257 257 257 258 258 259 260 261 262 263 264 265 265 266 268 269 271 273 275 276 278 280 281 282 283 284 286 287 288 289 290 291 292 293 293 294 295 295 295 296 296 297
316 316 316 316 316 316 316 316 315 314 314 313 313 313 312 312 312 311 310 308 307 306 305 305 304 302 300 298 297 295 294 293 292 289 284 278 270 265 264 264 263 260 258 257 257 258 259 259 260 261 261 262 263 264 265 266 267 268 270 272 274 275 277 278 280 281 282 283 285 286 288 289 290 291 292 293 293 294 295 295 295 296 296 296 296 297
317 317 317 317 317 316 316 316 315 314 314 313 313 312 311 311 311 310 308 307 306 306 305 304 303 301 299 297 295 294 293 291 289 286 282 275 268 263 261 262 261 260 258 258 258 259 259 260 261 262 264 265 266 266 267 268 270 271 273 274 276 277 279 280 281 282 284 286 287 289 290 291 292 293 293 294 294 295 295 295 295 296 296 296 296 297
318 317 317 317 317 316 316 315 315 314 313 312 312 311 311 311 310 310 308 306 306 305 304 303 302 301 299 297 295 293 291 288 286 284 280 273 266 261 260 260 260 260 259 259 259 260 260 261 263 264 266 267 268 269 270 271 272 273 274 276 277 278 279 281 283 284 286 288 290 291 293 293 294 294 294 295 295 295 295 296 296 296 296 296 297 297
318 317 317 317 316 316 315 315 314 313 313 312 311 311 310 310 310 309 308 307 306 305 304 303 301 300 298 296 294 291 287 286 284 282 278 272 266 261 259 258 259 260 260 260 260 260 261 262 264 266 267 268 268 269 270 271 272 273 275 276 277 279 280 282 284 286 288 290 292 293 294 294 295 295 295 295 296 296 296 296 296 297 297 297 297 297
317 317 317 316 316 315 315 314 313 313 312 311 310 310 310 309 309 309 308 307 307 306 304 302 301 299 297 294 291 287 283 282 282 281 277 272 267 262 259 258 259 259 260 260 260 260 260 262 264 266 266 266 267 267 268 269 270 272 273 275 276 278 280 282 284 287 289 291 292 293 294 294 295 295 295 296 296 296 296 297 297 297 297 297 297 297
317 317 316 316 315 315 315 314 313 312 312 311 310 309 309 309 309 308 308 307 306 305 304 302 300 298 296 293 289 283 279 278 279 278 277 273 269 265 262 260 260 260 260 260 259 259 259 259 261 263 264 264 264 265 265 267 268 269 271 273 275 277 280 282 285 287 289 290 291 292 293 293 293 294 294 295 295 295 296 296 296 297 297 297 297 296
317 317 316 316 316 315 315 314 313 312 311 310 310 309 309 308 308 308 307 307 306 305 304 302 300 297 295 292 288 282 277 275 275 275 275 273 271 268 265 263 262 262 262 261 260 259 258 257 256 258 259 261 262 263 264 265 267 269 270 272 275 277 280 282 284 286 287 288 289 290 290 291 291 292 292 293 293 294 294 295 295 296 296 296 295 295
317 316 316 316 315 315 314 314 313 312 311 311 310 309 309 308 308 307 307 306 306 305 303 301 299 296 293 290 286 281 276 273 273 273 273 272 271 269 268 266 265 265 264 263 262 261 259 257 255 254 254 256 258 260 262 264 266 268 270 272 275 277 279 281 283 284 285 286 287 288 288 289 289 290 290 291 291 292 293 293 294 294 294 294 294 294
316 316 316 315 315 314 314 313 313 312 312 311 310 309 309 308 307 307 306 306 305 305 304 301 298 295 292 288 284 279 274 273 273 273 272 272 271 270 269 268 267 267 266 265 264 263 261 259 257 255 253 252 253 256 259 262 264 267 269 271 274 276 278 280 281 282 283 284 285 286 286 287 288 288 289 290 290 291 291 292 292 293 293 293 293 293
315 315 315 315 314 314 313 313 312 312 312 311 311 310 309 308 307 307 306 305 305 304 304 302 299 296 292 288 283 278 274 273 273 272 272 272 271 270 270 269 268 268 267 266 266 265 264 262 261 259 257 255 253 253 256 259 262 265 268 270 273 275 277 278 280 281 282 283 283 284 285 286 286 287 288 289 289 290 291 291 292 292 292 292 292 292
315 315 315 314 314 314 313 313 313 312 312 312 311 310 310 309 308 307 306 305 305 304 303 302 299 296 292 288 284 279 275 273 272 272 272 272 272 271 270 270 269 269 268 268 267 266 265 265 264 263 262 260 258 257 258 260 263 266 268 271 273 275 277 278 279 280 281 282 282 283 284 285 285 286 287 288 289 289 290 291 291 292 292 292 292 292
316 316 315 315 315 314 314 314 313 313 312 312 311 310 310 309 307 307 306 305 304 303 302 301 299 296 292 288 284 280 276 274 273 273 273 273 273 273 272 271 270 270 270 270 269 269 268 267 267 266 265 264 264 263 263 264 266 268 270 272 274 276 277 278 279 280 280 281 282 283 283 284 285 285 286 287 288 289 289 290 291 291 292 292 292 292
316 316 316 315 315 315 315 314 314 313 313 312 311 311 310 309 308 307 306 305 304 303 302 300 298 295 292 289 285 281 278 276 274 274 274 274 274 274 273 273 272 272 272 272 272 272 271 271 270 270 269 269 268 269 269 270 271 272 273 274 275 276 277 277 278 279 280 280 281 282 283 283 284 284 285 286 287 287 288 289 290 290 291 291 291 291
316 316 316 316 316 316 315 315 314 314 314 313 312 311 310 309 308 308 307 305 304 303 301 299 297 294 292 289 286 283 280 278 276 276 275 275 275 275 274 274 274 273 273 274 274 274 274 274 274 273 273 273 273 273 274 275 276 276 276 276 275 275 276 276 277 278 279 280 281 281 282 282 283 283 284 285 286 286 287 288 288 289 289 290 290 290
317 317 317 316 316 316 316 316 315 315 314 313 312 311 310 310 309 308 307 306 304 303 301 299 297 294 291 288 285 283 281 279 278 277 276 276 276 276 275 275 275 274 274 275 275 275 276 276 276 276 276 276 276 277 277 278 279 280 279 279 278 277 276 277 277 278 279 280 280 281 281 281 282 282 283 283 284 285 286 286 287 287 288 288 288 288
317 317 317 317 317 316 316 316 315 315 314 314 312 311 310 310 309 308 307 305 304 302 300 298 296 293 291 288 286 283 281 280 279 278 277 277 277 276 276 276 275 275 275 275 275 275 276 276 276 277 277 278 278 279 280 281 282 283 283 283 282 281 280 280 280 280 281 281 281 281 281 281 281 281 281 282 282 283 284 285 285 286 286 286 287 287
317 317 317 317 317 316 316 316 316 315 314 314 313 312 311 310 309 308 307 305 304 302 300 298 296 293 291 288 286 284 282 280 279 278 278 277 277 277 277 277 276 276 276 275 275 276 276 276 277 278 279 279 280 282 283 284 285 285 286 286 285 285 284 284 283 283 283 283 283 282 282 281 281 281 281 281 282 282 283 284 285 285 286 286 286 286
317 317 317 317 317 317 317 316 316 315 315 314 313 312 311 311 310 309 307 306 304 302 301 299 297 294 291 288 286 284 283 282 281 280 279 279 279 279 278 278 278 277 277 277 277 277 277 278 279 280 281 281 283 284 285 286 287 287 287 287 288 288 288 288 287 287 286 286 285 284 283 282 282 281 281 282 282 283 283 284 285 285 286 286 286 286
317 317 317 317 317 317 317 316 316 315 315 314 313 312 311 311 310 309 308 306 305 303 301 299 297 295 292 289 286 284 283 283 282 282 281 281 281 281 281 280 280 280 280 279 279 280 280 281 281 282 282 283 285 286 287 288 288 288 288 289 289 290 290 291 291 291 290 289 288 287 285 284 284 283 283 283 284 284 284 285 285 286 286 286 287 287
317 317 317 317 317 317 316 316 315 315 315 314 313 312 312 311 310 309 308 307 305 304 302 300 298 296 293 290 288 285 284 283 283 283 282 282 282 282 282 282 282 282 282 282 282 282 282 283 283 283 284 285 286 287 288 289 289 289 289 290 290 291 292 293 294 294 293 292 290 289 287 286 286 286 285 285 285 285 286 286 286 287 287 287 287 287
317 317 317 317 316 316 316 315 315 315 314 314 313 312 312 311 310 309 308 307 306 305 303 301 299 297 294 292 289 286 284 283 283 282 283 283 283 283 283 283 283 282 283 283 283 283 283 283 284 284 285 286 287 288 288 289 290 290 290 291 292 293 294 295 295 295 294 293 292 290 289 288 288 288 287 287 287 287 287 287 287 287 287 287 286 285
316 316 316 316 316 316 315 315 315 315 314 314 313 312 311 311 310 309 308 307 306 305 304 302 300 298 296 293 291 288 286 284 283 282 283 283 283 283 283 283 283 283 283 282 283 283 283 283 284 285 286 287 288 289 289 289 290 291 291 292 293 294 295 295 295 294 294 293 292 291 290 289 289 289 288 287 287 287 287 288 287 287 287 286 285 284
316 316 316 316 315 315 315 314 314 314 314 314 313 312 311 310 309 309 308 307 306 305 304 303 301 299 297 295 292 290 287 285 283 282 282 282 283 283 283 283 283 283 283 283 283 283 283 284 285 286 288 289 290 290 290 290 290 291 292 293 294 294 295 294 294 293 292 291 291 290 290 290 289 289 289 288 288 287 287 287 287 287 286 285 284 282
315 315 315 315 315 314 314 314 314 314 313 313 313 312 311 310 309 308 307 306 306 305 304 303 302 300 298 296 294 291 289 286 284 283 282 282 282 282 282 282 282 282 282 282 283 283 284 284 285 287 288 289 290 290 290 290 290 291 291 292 293 294 294 293 293 292 291 291 290 290 290 290 290 290 290 289 289 288 288 287 287 286 285 284 283 281
315 315 315 314 314 314 314 314 314 313 313 312 312 311 310 309 308 307 307 306 306 305 304 303 302 300 299 296 294 292 289 288 286 284 283 282 282 282 282 282 282 282 282 282 283 283 283 284 285 286 287 288 289 289 289 289 290 290 291 292 293 293 293 293 292 291 290 290 290 290 290 290 290 290 290 290 290 289 288 288 287 286 285 284 282 281
Height
3051 3050 3049 3048 3047 3046 3045 3044 3043 3043 3042 3041 3040 3039 3038 3037 3037 3037 3036 3035 3035 3034 3033 3032 3032 3032 3032 3033 3034 3034 3035 3035 3036 3036 3037 3037 3038 3038 3039 3039 3040 3040 3041 3041 3042 3042 3042 3043 3043 3043 3043 3043 3043 3043 3043 3043 3043 3043 3043 3043 3042 3042 3042 3042 3042 3042 3042 3041 3041 3041 3041 3041 3041 3040 3040 3040 3040 3040 3040 3039 3039 3039 3039 3039 3039 3039
3049 3048 3047 3046 3045 3044 3043 3042 3041 3041 3040 3039 3038 3038 3037 3036 3035 3035 3034 3034 3033 3033 3032 3031 3031 3031 3032 3032 3033 3033 3034 3034 3035 3035 3036 3036 3036 3037 3037 3037 3038 3038 3039 3039 3040 3040 3040 3040 3040 3041 3041 3041 3041 3041 3041 3040 3040 3040 3040 3040 3040 3039 3039 3039 3039 3038 3038 3038 3038 3037 3037 3037 3037 3037 3037 3037 3036 3036 3036 3036 3036 3035 3035 3035 3035 3035
3047 3046 3045 3044 3043 3042 3041 3040 3039 3038 3038 3037 3037 3036 3035 3035 3034 3033 3033 3032 3032 3031 3030 3030 3030 3030 3031 3031 3032 3032 3033 3033 3033 3034 3034 3034 3035 3035 3035 3036 3036 3037 3037 3037 3037 3037 3038 3038 3038 3038 3038 3038 3038 3037 3037 3037 3037 3037 3037 3037 3037 3037 3036 3036 3036 3035 3035 3035 3034 3034 3034 3034 3033 3033 3033 3033 3032 3032 3032 3032 3032 3032 3032 3032 3031 3031
3045 3044 3043 3042 3041 3040 3039 3038 3037 3037 3036 3036 3035 3034 3034 3033 3033 3032 3032 3031 3030 3030 3029 3029 3029 3029 3030 3030 3031 3031 3032 3032 3032 3032 3033 3033 3033 3033 3033 3034 3034 3035 3035 3035 3035 3035 3035 3035 3035 3035 3035 3035 3035 3034 3034 3034 3034 3034 3034 3034 3034 3034 3033 3033 3032 3032 3032 3031 3031 3031 3030 3030 3030 3029 3029 3029 3029 3028 3028 3028 3028 3028 3028 3028 3027 3027
3043 3042 3041 3040 3039 3038 3037 3036 3036 3035 3035 3034 3033 3033 3032 3032 3032 3031 3030 3030 3029 3029 3029 3029 3029 3029 3029 3030 3030 3031 3031 3031 3031 3031 3031 3031 3032 3032 3032 3032 3032 3032 3033 3033 3033 3033 3032 3032 3032 3032 3032 3032 3032 3031 3031 3031 3031 3031 3031 3031 3031 3030 3030 3029 3029 3029 3028 3028 3027 3027 3027 3026 3026 3026 3025 3025 3025 3025 3025 3024 3024 3024 3024 3024 3024 3024
3041 3040 3039 3038 3037 3036 3035 3035 3034 3034 3033 3033 3032 3032 3031 3031 3030 3030 3029 3029 3029 3028 3028 3028 3028 3029 3029 3029 3029 3029 3030 3030 3029 3029 3029 3029 3030 3030 3030 3030 3030 3030 3030 3030 3030 3030 3030 3029 3029 3029 3029 3029 3028 3028 3028 3028 3028 3028 3027 3027 3027 3027 3026 3026 3026 3025 3025 3024 3024 3023 3023 3022 3022 3022 3022 3022 3022 3022 3021 3021 3021 3021 3021 3021 3021 3021
3038 3038 3037 3036 3035 3034 3034 3033 3033 3033 3032 3032 3032 3031 3031 3030 3029 3029 3029 3028 3028 3028 3028 3028 3028 3028 3028 3028 3028 3028 3028 3028 3028 3027 3027 3027 3028 3028 3028 3028 3028 3028 3028 3028 3027 3027 3027 3027 3026 3026 3026 3026 3025 3025 3025 3025 3024 3024 3024 3024 3023 3023 3023 3022 3022 3022 3021 3021 3020 3020 3019 3019 3019 3019 3018 3018 3018 3018 3018 3018 3018 3018 3018 3018 3017 3017
3037 3036 3035 3034 3033 3033 3033 3032 3032 3032 3032 3031 3031 3030 3029 3029 3029 3028 3028 3027 3027 3027 3027 3027 3027 3027 3027 3027 3027 3027 3026 3026 3026 3026 3026 3026 3026 3026 3026 3026 3026 3026 3025 3025 3025 3024 3024 3023 3023 3023 3022 3022 3022 3022 3022 3021 3021 3021 3020 3020 3020 3019 3019 3019 3018 3018 3017 3017 3017 3017 3016 3016 3016 3016 3016 3016 3016 3015 3015 3015 3015 3015 3015 3015 3015 3015
3035 3034 3033 3033 3032 3032 3032 3031 3031 3031 3030 3030 3029 3029 3028 3028 3027 3027 3027 3027 3026 3026 3026 3026 3026 3025 3025 3025 3025 3024 3024 3024 3023 3023 3023 3023 3023 3023 3023 3023 3023 3023 3022 3022 3021 3021 3020 3020 3020 3019 3019 3019 3019 3018 3018 3018 3017 3017 3017 3017 3016 3016 3016 3015 3015 3015 3014 3014 3014 3014 3013 3013 3013 3013 3013 3013 3013 3013 3013 3012 3013 3013 3012 3012 3012 3012
3033 3033 3032 3032 3031 3031 3031 3030 3030 3030 3029 3028 3028 3027 3027 3027 3026 3026 3026 3025 3025 3025 3025 3025 3024 3024 3023 3023 3022 3022 3022 3022 3021 3021 3021 3021 3021 3020 3020 3020 3020 3019 3019 3018 3018 3017 3017 3017 3016 3016 3016 3016 3015 3015 3014 3014 3014 3013 3013 3013 3013 3013 3012 3012 3012 3012 3012 3012 3011 3011 3011 3011 3011 3011 3011 3011 3011 3011 3010 3010 3010 3010 3011 3010 3010 3010
3032 3031 3031 3031 3030 3030 3029 3029 3029 3028 3027 3027 3027 3026 3026 3025 3025 3025 3024 3024 3023 3023 3023 3022 3022 3022 3021 3020 3020 3020 3019 3019 3019 3018 3018 3018 3018 3017 3017 3017 3017 3016 3016 3015 3015 3014 3013 3013 3013 3013 3012 3012 3012 3012 3011 3011 3010 3010 3010 3010 3010 3010 3010 3009 3009 3009 3009 3009 3009 3009 3009 3009 3009 3009 3009 3009 3009 3009 3008 3008 3008 3008 3008 3008 3008 3008
3031 3030 3030 3030 3029 3029 3028 3028 3027 3027 3027 3026 3025 3025 3024 3024 3023 3023 3022 3022 3021 3021 3021 3020 3020 3019 3019 3018 3017 3017 3017 3016 3016 3016 3015 3015 3015 3014 3014 3013 3013 3013 3012 3012 3012 3011 3010 3010 3010 3009 3009 3009 3008 3008 3008 3007 3007 3007 3007 3007 3007 3007 3007 3007 3007 3007 3007 3007 3007 3007 3007 3007 3007 3007 3007 3007 3007 3007 3007 3007 3007 3007 3007 3007 3007 3007
3030 3029 3029 3028 3028 3027 3027 3027 3027 3026 3025 3025 3024 3023 3023 3022 3022 3021 3021 3020 3019 3018 3018 3018 3017 3017 3016 3016 3015 3015 3014 3014 3013 3013 3012 3012 3012 3011 3011 3010 3010 3010 3009 3009 3008 3007 3007 3007 3007 3006 3006 3006 3005 3005 3005 3005 3005 3005 3005 3005 3005 3005 3005 3005 3005 3005 3005 3005 3005 3005 3005 3005 3005 3005 3005 3005 3005 3005 3005 3005 3005 3005 3005 3005 3005 3005
3029 3028 3027 3027 3026 3026 3026 3025 3025 3024 3024 3023 3023 3022 3021 3021 3020 3019 3019 3018 3017 3017 3016 3016 3015 3014 3014 3013 3013 3012 3012 3012 3011 3011 3010 3010 3009 3008 3007 3007 3007 3007 3006 3006 3005 3004 3004 3003 3003 3003 3003 3002 3002 3002 3002 3002 3002 3002 3003 3003 3003 3003 3003 3003 3003 3003 3003 3003 3003 3003 3003 3003 3003 3003 3003 3003 3003 3003 3003 3003 3003 3003 3003 3003 3003 3003
3027 3026 3026 3025 3024 3024 3023 3023 3022 3022 3022 3021 3021 3020 3019 3019 3018 3017 3017 3016 3015 3015 3014 3014 3013 3012 3012 3011 3011 3010 3010 3009 3009 3008 3008 3007 3006 3005 3004 3004 3003 3003 3003 3002 3002 3001 3001 3000 3000 3000 3000 3000 3000 3000 3000 3000 3000 3001 3001 3001 3001 3001 3001 3001 3001 3002 3002 3002 3002 3002 3002 3002 3002 3002 3002 3002 3002 3002 3002 3002 3002 3002 3002 3002 3002 3001
3025 3024 3023 3022 3022 3022 3021 3021 3020 3020 3019 3019 3018 3018 3017 3017 3016 3015 3015 3014 3013 3013 3012 3012 3011 3010 3009 3009 3008 3007 3007 3007 3006 3006 3005 3004 3003 3002 3001 3000 3000 3000 2999 2999 2998 2998 2997 2997 2998 2997 2997 2997 2997 2997 2998 2998 2998 2998 2999 2999 2999 2999 2999 3000 3000 3000 3000 3000 3000 3000 3000 3000 3000 3000 3000 3000 3000 3000 3000 3000 3000 3000 3000 2999 2999 2999
3023 3022 3022 3021 3020 3019 3019 3018 3017 3017 3017 3016 3016 3015 3014 3014 3013 3013 3012 3012 3011 3010 3010 3009 3009 3008 3007 3006 3005 3004 3004 3003 3003 3002 3002 3002 3001 2999 2997 2997 2997 2997 2997 2996 2995 2995 2995 2995 2995 2995 2995 2995 2995 2996 2996 2996 2997 2997 2997 2997 2997 2997 2998 2998 2998 2998 2998 2998 2998 2998 2998 2998 2998 2998 2998 2998 2998 2998 2998 2998 2997 2997 2997 2997 2997 2997
3022 3021 3020 3019 3018 3017 3017 3016 3015 3015 3014 3013 3013 3012 3012 3011 3011 3010 3009 3009 3008 3007 3007 3006 3006 3005 3004 3003 3002 3000 3000 2999 2999 2999 2999 2999 2997 2996 2994 2994 2994 2994 2994 2993 2992 2992 2993 2993 2993 2993 2993 2993 2993 2994 2994 2994 2995 2995 2995 2996 2996 2996 2996 2996 2996 2996 2997 2997 2997 2996 2996 2996 2996 2996 2996 2996 2996 2996 2996 2995 2995 2995 2995 2995 2995 2995
3021 3020 3019 3018 3017 3016 3015 3014 3013 3013 3012 3012 3011 3010 3009 3008 3008 3007 3007 3006 3005 3004 3004 3003 3002 3002 3001 3000 2999 2997 2996 2996 2995 2996 2996 2996 2995 2993 2991 2991 2991 2992 2992 2991 2991 2991 2991 2991 2992 2992 2992 2992 2992 2992 2992 2993 2993 2993 2994 2994 2994 2994 2994 2994 2994 2995 2995 2995 2995 2994 2994 2994 2994 2994 2994 2994 2993 2993 2993 2993 2993 2993 2993 2993 2992 2992
3019 3018 3017 3017 3016 3015 3014 3013 3012 3011 3011 3010 3009 3008 3007 3007 3006 3005 3004 3004 3003 3002 3001 3001 3000 2999 2998 2997 2996 2995 2994 2993 2992 2993 2993 2993 2992 2990 2989 2988 2989 2990 2990 2989 2989 2989 2989 2990 2990 2990 2990 2990 2990 2991 2991 2992 2992 2992 2992 2992 2992 2992 2992 2992 2992 2992 2992 2992 2992 2992 2992 2992 2992 2992 2992 2992 2991 2991 2991 2991 2991 2991 2991 2991 2990 2990
3018 3017 3016 3015 3014 3013 3012 3012 3011 3010 3009 3008 3007 3007 3006 3005 3004 3003 3002 3002 3001 3000 2999 2998 2997 2997 2996 2995 2994 2993 2992 2991 2991 2991 2991 2991 2990 2988 2987 2987 2987 2988 2988 2987 2987 2987 2988 2988 2988 2988 2988 2988 2989 2989 2990 2990 2990 2990 2990 2990 2990 2990 2990 2991 2991 2991 2991 2990 2990 2990 2990 2990 2989 2989 2989 2989 2989 2989 2989 2989 2988 2988 2988 2988 2988 2988
3017 3016 3015 3014 3013 3012 3011 3010 3009 3008 3007 3006 3006 3005 3004 3003 3002 3001 3001 3000 2999 2998 2997 2996 2995 2994 2993 2992 2992 2990 2989 2989 2988 2989 2989 2989 2988 2986 2985 2985 2986 2986 2986 2986 2986 2986 2987 2987 2987 2987 2987 2987 2987 2988 2988 2988 2988 2988 2988 2988 2988 2988 2988 2988 2988 2988 2988 2988 2988 2987 2987 2987 2987 2987 2987 2987 2987 2987 2987 2986 2986 2986 2986 2986 2986 2986
3015 3014 3013 3012 3011 3010 3009 3008 3007 3007 3006 3004 3003 3003 3002 3001 3000 2999 2998 2997 2997 2996 2995 2994 2993 2992 2991 2990 2989 2988 2987 2987 2987 2987 2987 2987 2986 2985 2983 2983 2984 2985 2985 2984 2984 2984 2985 2985 2985 2985 2985 2986 2986 2986 2987 2987 2987 2987 2987 2987 2987 2986 2986 2986 2986 2986 2986 2986 2985 2985 2985 2985 2985 2985 2985 2984 2984 2984 2984 2984 2984 2983 2983 2983 2983 2983
3013 3012 3012 3011 3010 3008 3007 3007 3006 3005 3004 3002 3002 3001 3000 2999 2998 2997 2996 2995 2994 2993 2992 2992 2991 2990 2989 2988 2987 2986 2985 2985 2985 2985 2985 2985 2984 2983 2982 2982 2982 2983 2983 2983 2983 2983 2983 2984 2984 2984 2984 2984 2985 2985 2985 2985 2985 2985 2985 2984 2984 2984 2984 2984 2984 2984 2983 2983 2983 2983 2983 2983 2982 2982 2982 2982 2982 2982 2981 2981 2981 2981 2981 2980 2980 2980
3012 3011 3010 3009 3008 3007 3006 3005 3004 3003 3002 3001 3000 2999 2998 2997 2996 2995 2994 2993 2992 2991 2990 2990 2989 2988 2987 2986 2985 2984 2983 2982 2982 2983 2983 2983 2982 2982 2981 2980 2981 2982 2982 2982 2982 2982 2982 2982 2982 2982 2982 2983 2983 2983 2983 2983 2983 2983 2982 2982 2982 2982 2982 2982 2981 2981 2981 2981 2981 2981 2981 2980 2980 2980 2980 2979 2979 2979 2979 2978 2978 2978 2978 2977 2977 2977
3010 3009 3008 3007 3006 3005 3004 3003 3002 3001 3000 2999 2998 2997 2996 2995 2994 2993 2992 2991 2990 2989 2988 2988 2987 2986 2985 2984 2983 2982 2981 2980 2980 2981 2981 2981 2981 2980 2979 2979 2979 2980 2980 2981 2981 2981 2981 2981 2981 2981 2981 2981 2981 2982 2981 2981 2981 2981 2981 2980 2980 2980 2979 2979 2979 2979 2979 2979 2979 2978 2978 2978 2978 2977 2977 2977 2977 2976 2976 2976 2976 2975 2975 2975 2974 2974
3009 3008 3007 3006 3005 3003 3002 3002 3000 2999 2998 2997 2996 2995 2994 2994 2993 2992 2991 2989 2988 2987 2987 2986 2985 2984 2983 2982 2981 2980 2979 2978 2978 2978 2979 2979 2979 2979 2978 2977 2978 2979 2979 2979 2979 2979 2979 2979 2979 2979 2979 2979 2979 2979 2979 2979 2979 2978 2978 2978 2978 2977 2977 2977 2977 2977 2977 2977 2976 2976 2976 2976 2975 2975 2974 2974 2974 2974 2973 2973 2973 2972 2972 2972 2972 2972
3007 3006 3005 3004 3003 3002 3001 3000 2999 2997 2997 2995 2994 2993 2992 2992 2991 2990 2989 2988 2987 2985 2985 2984 2983 2982 2982 2981 2980 2978 2977 2977 2976 2976 2977 2977 2977 2977 2977 2976 2977 2977 2977 2977 2977 2978 2978 2977 2977 2977 2977 2977 2977 2977 2977 2977 2977 2976 2976 2976 2976 2975 2975 2975 2975 2974 2974 2974 2974 2973 2973 2973 2972 2972 2972 2971 2971 2971 2971 2971 2970 2970 2970 2969 2969 2969
3006 3004 3003 3002 3001 3000 2999 2998 2997 2996 2995 2994 2992 2991 2990 2989 2989 2988 2987 2986 2985 2984 2983 2982 2981 2980 2980 2979 2978 2977 2976 2974 2974 2974 2975 2976 2976 2976 2976 2975 2975 2976 2976 2976 2976 2976 2976 2976 2976 2976 2976 2976 2975 2975 2975 2975 2975 2974 2974 2974 2974 2973 2973 2973 2972 2972 2972 2972 2971 2971 2971 2970 2970 2969 2969 2969 2968 2968 2968 2968 2967 2967 2967 2967 2967 2966
3004 3003 3002 3001 3000 2998 2997 2997 2995 2994 2993 2992 2991 2989 2988 2987 2987 2986 2985 2984 2983 2982 2981 2980 2979 2978 2978 2977 2976 2975 2974 2972 2972 2972 2973 2974 2974 2974 2974 2974 2974 2974 2974 2974 2974 2974 2974 2974 2974 2974 2974 2974 2973 2973 2973 2973 2972 2972 2972 2972 2972 2972 2971 2971 2971 2970 2970 2969 2969 2968 2968 2967 2967 2967 2966 2966 2966 2965 2965 2965 2964 2964 2964 2964 2963 2963
3002 3001 3000 2999 2998 2997 2996 2995 2994 2992 2991 2990 2989 2988 2987 2985 2984 2983 2982 2982 2981 2980 2979 2978 2977 2977 2976 2975 2975 2974 2972 2971 2970 2970 2971 2972 2972 2973 2973 2973 2972 2972 2973 2973 2973 2973 2973 2972 2972 2972 2972 2972 2972 2972 2972 2971 2971 2971 2971 2970 2970 2970 2969 2969 2969 2968 2968 2967 2967 2966 2966 2965 2964 2964 2963 2963 2963 2962 2962 2962 2962 2961 2961 2961 2961 2960
3001 3000 2999 2997 2996 2995 2994 2993 2992 2991 2989 2988 2987 2986 2985 2983 2982 2982 2981 2980 2979 2978 2977 2976 2975 2975 2974 2973 2973 2972 2971 2970 2968 2968 2969 2970 2971 2971 2972 2971 2971 2971 2971 2971 2971 2972 2972 2971 2971 2971 2971 2971 2971 2970 2970 2970 2970 2969 2969 2969 2968 2968 2967 2967 2967 2966 2966 2965 2965 2964 2963 2963 2962 2962 2961 2961 2960 2960 2959 2959 2959 2958 2958 2958 2957 2957
2999 2998 2997 2996 2995 2993 2992 2991 2990 2989 2987 2986 2985 2984 2983 2982 2981 2980 2978 2977 2977 2976 2975 2974 2973 2973 2972 2972 2971 2971 2970 2968 2967 2967 2968 2969 2969 2969 2970 2970 2970 2969 2969 2969 2970 2970 2970 2970 2970 2970 2970 2969 2969 2969 2969 2968 2968 2968 2967 2967 2967 2966 2966 2965 2965 2964 2964 2963 2963 2962 2962 2961 2960 2959 2959 2958 2958 2957 2957 2957 2956 2956 2955 2955 2954 2954
2998 2997 2995 2994 2993 2992 2991 2989 2988 2987 2986 2984 2983 2982 2981 2980 2979 2977 2977 2976 2975 2974 2973 2972 2972 2971 2970 2970 2970 2969 2968 2967 2966 2966 2967 2967 2967 2967 2968 2968 2968 2967 2967 2967 2968 2968 2968 2968 2969 2969 2968 2968 2968 2968 2967 2967 2966 2966 2966 2965 2965 2965 2964 2963 2963 2962 2962 2962 2961 2960 2959 2959 2958 2957 2957 2956 2955 2955 2955 2954 2954 2953 2952 2952 2952 2951
2996 2995 2994 2992 2991 2990 2989 2987 2986 2985 2984 2982 2981 2980 2979 2978 2977 2976 2975 2974 2973 2972 2971 2970 2970 2969 2969 2968 2968 2968 2967 2966 2965 2965 2965 2966 2966 2966 2966 2966 2966 2966 2966 2966 2966 2966 2966 2967 2967 2967 2967 2967 2967 2967 2966 2965 2965 2964 2964 2964 2963 2963 2962 2962 2961 2960 2960 2959 2959 2958 2957 2957 2956 2955 2954 2953 2953 2952 2952 2952 2951 2951 2950 2949 2949 2948
2995 2993 2992 2991 2990 2988 2987 2986 2984 2983 2982 2981 2979 2978 2977 2976 2975 2974 2973 2972 2971 2970 2969 2968 2968 2967 2967 2967 2967 2966 2966 2965 2964 2964 2964 2964 2964 2964 2964 2964 2964 2964 2964 2964 2964 2964 2964 2965 2965 2965 2965 2966 2966 2965 2965 2964 2963 2963 2963 2962 2962 2961 2960 2960 2959 2958 2958 2957 2957 2956 2955 2954 2953 2952 2952 2951 2950 2950 2949 2949 2948 2948 2947 2947 2946 2945
2993 2992 2990 2989 2988 2987 2985 2984 2982 2981 2980 2979 2977 2976 2975 2974 2973 2972 2971 2970 2969 2968 2967 2967 2966 2966 2965 2965 2964 2964 2964 2963 2962 2962 2962 2962 2962 2962 2963 2963 2962 2962 2962 2962 2962 2962 2962 2962 2963 2963 2963 2963 2963 2963 2963 2962 2962 2962 2961 2961 2960 2959 2958 2957 2957 2956 2955 2955 2954 2954 2953 2952 2951 2950 2949 2949 2948 2947 2947 2946 2946 2945 2944 2944 2943 2942
2991 2990 2988 2987 2986 2984 2983 2982 2980 2979 2978 2977 2975 2974 2973 2972 2971 2970 2969 2968 2967 2966 2966 2965 2964 2964 2963 2963 2962 2962 2962 2962 2961 2961 2960 2960 2960 2961 2961 2961 2961 2961 2960 2960 2960 2960 2960 2960 2961 2961 2961 2961 2961 2961 2961 2960 2960 2960 2959 2959 2958 2957 2956 2956 2955 2954 2953 2952 2952 2951 2951 2950 2949 2948 2947 2946 2946 2945 2944 2944 2943 2942 2942 2941 2940 2940
2989 2987 2986 2985 2984 2982 2981 2980 2978 2977 2976 2975 2973 2972 2971 2970 2969 2968 2967 2966 2965 2964 2964 2963 2962 2962 2961 2961 2961 2960 2960 2960 2959 2959 2959 2958 2958 2958 2959 2959 2958 2958 2958 2958 2958 2958 2958 2958 2958 2958 2958 2958 2958 2958 2958 2958 2957 2957 2957 2957 2956 2955 2954 2953 2952 2952 2951 2950 2950 2949 2948 2947 2946 2945 2945 2944 2943 2942 2942 2941 2941 2940 2939 2938 2937 2937
2987 2985 2984 2983 2982 2980 2979 2978 2976 2975 2974 2973 2972 2970 2969 2968 2967 2966 2965 2964 2963 2962 2962 2961 2961 2960 2959 2959 2958 2958 2958 2957 2957 2957 2957 2957 2956 2956 2956 2957 2956 2956 2956 2956 2955 2955 2955 2955 2955 2955 2956 2956 2956 2956 2956 2956 2955 2955 2954 2954 2953 2953 2952 2952 2950 2950 2949 2948 2947 2947 2946 2945 2944 2943 2942 2942 2941 2940 2940 2939 2938 2937 2937 2936 2935 2935
2985 2983 2982 2981 2979 2978 2977 2976 2974 2973 2972 2971 2970 2968 2967 2966 2965 2964 2963 2962 2962 2961 2960 2959 2959 2958 2958 2957 2957 2956 2956 2955 2955 2955 2955 2954 2954 2954 2954 2954 2954 2954 2953 2953 2953 2953 2953 2952 2952 2952 2952 2952 2952 2952 2953 2953 2952 2952 2951 2951 2951 2950 2950 2949 2948 2947 2947 2946 2945 2944 2943 2942 2942 2941 2940 2939 2938 2938 2937 2936 2936 2935 2934 2933 2932 2932
2982 2981 2980 2979 2977 2976 2975 2973 2972 2971 2970 2969 2968 2967 2966 2964 2964 2963 2962 2961 2960 2959 2958 2958 2957 2957 2956 2955 2955 2954 2953 2953 2953 2952 2952 2952 2952 2952 2952 2952 2952 2951 2951 2951 2951 2951 2951 2950 2950 2950 2950 2950 2949 2950 2950 2950 2949 2949 2948 2947 2947 2947 2947 2947 2946 2945 2944 2943 2942 2942 2941 2940 2939 2938 2937 2937 2936 2935 2934 2934 2933 2932 2932 2931 2930 2929
2981 2979 2978 2977 2975 2974 2973 2972 2970 2969 2968 2967 2966 2965 2963 2962 2962 2961 2960 2959 2958 2957 2956 2956 2955 2955 2954 2953 2953 2952 2952 2951 2951 2950 2950 2950 2950 2950 2949 2949 2949 2949 2949 2948 2948 2948 2948 2948 2947 2947 2947 2947 2947 2947 2947 2947 2946 2946 2945 2944 2944 2943 2943 2944 2943 2942 2942 2940 2939 2938 2937 2937 2936 2935 2935 2934 2933 2933 2932 2931 2930 2930 2929 2928 2927 2927
2978 2977 2976 2975 2973 2972 2971 2970 2968 2967 2966 2965 2964 2962 2962 2961 2960 2959 2958 2957 2956 2955 2954 2954 2953 2952 2952 2952 2951 2950 2949 2948 2948 2948 2947 2947 2947 2947 2947 2947 2947 2946 2946 2946 2946 2946 2945 2945 2945 2945 2944 2944 2943 2943 2943 2943 2943 2942 2942 2941 2941 2940 2940 2940 2940 2939 2938 2937 2937 2935 2934 2933 2932 2932 2932 2931 2931 2930 2929 2928 2928 2927 2926 2925 2924 2924
2977 2975 2974 2973 2972 2970 2969 2968 2967 2965 2964 2963 2962 2961 2959 2958 2957 2957 2956 2955 2954 2953 2952 2952 2951 2950 2950 2949 2949 2948 2947 2947 2946 2945 2945 2945 2945 2945 2944 2944 2944 2944 2943 2943 2943 2943 2943 2942 2942 2942 2942 2941 2941 2941 2940 2940 2940 2939 2939 2938 2937 2937 2937 2936 2936 2935 2934 2934 2933 2932 2931 2930 2929 2929 2928 2928 2928 2927 2927 2926 2925 2924 2923 2922 2922 2921
2975 2973 2972 2971 2969 2968 2967 2966 2965 2963 2962 2961 2960 2958 2957 2956 2955 2955 2954 2953 2952 2951 2951 2950 2949 2948 2948 2947 2947 2946 2945 2945 2944 2943 2942 2942 2942 2942 2942 2942 2941 2941 2941 2941 2941 2940 2940 2940 2939 2939 2939 2938 2938 2938 2937 2937 2936 2936 2936 2935 2935 2934 2933 2933 2932 2932 2931 2930 2929 2928 2927 2927 2926 2925 2925 2925 2924 2924 2923 2923 2922 2921 2921 2920 2919 2918
2973 2972 2970 2969 2967 2966 2965 2964 2963 2962 2960 2959 2958 2957 2955 2954 2953 2952 2952 2951 2950 2949 2948 2948 2947 2946 2946 2945 2945 2944 2944 2943 2942 2941 2941 2940 2940 2940 2939 2939 2939 2938 2938 2938 2938 2938 2937 2937 2937 2937 2936 2936 2936 2935 2935 2934 2933 2933 2932 2932 2932 2931 2930 2930 2929 2928 2927 2926 2926 2925 2924 2923 2922 2922 2922 2921 2921 2921 2920 2920 2919 2918 2917 2917 2916 2915
2971 2969 2968 2967 2966 2964 2963 2962 2961 2959 2958 2957 2956 2954 2953 2952 2951 2950 2949 2949 2948 2947 2947 2946 2945 2944 2944 2943 2942 2942 2942 2941 2940 2940 2939 2938 2938 2937 2937 2937 2936 2936 2936 2936 2935 2935 2935 2935 2934 2934 2934 2933 2933 2932 2932 2932 2931 2930 2929 2929 2928 2928 2927 2927 2926 2925 2924 2923 2922 2922 2921 2920 2919 2919 2918 2917 2917 2917 2917 2917 2916 2915 2915 2914 2913 2912
2969 2967 2966 2965 2964 2962 2961 2960 2959 2957 2956 2955 2954 2952 2951 2950 2949 2948 2947 2947 2946 2945 2944 2944 2943 2942 2942 2941 2941 2940 2940 2939 2938 2938 2937 2936 2936 2935 2935 2934 2934 2933 2933 2933 2933 2932 2932 2932 2932 2932 2931 2930 2930 2929 2929 2928 2928 2927 2927 2926 2925 2925 2924 2923 2923 2922 2921 2920 2919 2918 2918 2917 2916 2915 2914 2914 2914 2914 2914 2914 2913 2912 2912 2911 2910 2909
2967 2966 2964 2963 2962 2961 2959 2958 2957 2956 2954 2953 2952 2951 2949 2948 2947 2946 2945 2944 2944 2943 2942 2942 2941 2940 2940 2939 2939 2938 2937 2937 2937 2936 2935 2934 2934 2933 2933 2932 2932 2931 2931 2930 2930 2930 2929 2929 2929 2929 2929 2928 2927 2926 2926 2926 2925 2925 2924 2923 2922 2922 2921 2920 2920 2919 2918 2917 2916 2916 2915 2914 2913 2912 2911 2910 2910 2910 2910 2910 2910 2910 2909 2908 2907 2906
2965 2963 2962 2961 2960 2959 2957 2956 2955 2954 2952 2952 2950 2949 2948 2947 2945 2944 2943 2942 2942 2941 2940 2940 2939 2938 2938 2937 2937 2936 2936 2935 2934 2934 2933 2932 2932 2931 2931 2930 2929 2929 2928 2928 2927 2927 2927 2927 2927 2927 2927 2926 2925 2923 2923 2922 2922 2922 2921 2921 2920 2919 2918 2917 2917 2916 2915 2914 2913 2912 2912 2911 2910 2909 2908 2907 2907 2906 2907 2907 2907 2907 2906 2905 2904 2903